STARLINK-34767

Last updated on Tue Dec 16 2025 00:02:05 GMT+0000 (Coordinated Universal Time)

1 66507U 25263Y 25349.33335648 .00052894 00000+0 12658-2 0 9991 2 66507 43.0002 110.1918 0001437 266.7682 31.4825 15.40674121 6053
UTC large
Height (km)
Speed (km/s)
/
Latitude / Longitude
Inclination (degrees)
Orbital Period (minutes)
Azimuth
Elevation
Range (km)
Doppler Factor

Next 0 passes for location: London (51.5072 / 0.1276)

Sorry there are no passes over London.